Meteo Giornale » Osservazioni meteo Germania » Memmingen Allgau Airport

ore: 20:50 - Osservazioni Meteo Memmingen Allgau Airport
Lat. 47° 59' N Lon. 10° 14' E Alt. 633 metri s.l.m.

molto_nuvoloso Europe/Berlin

12 °C

Molto Nuvoloso

Temp. 24 Ore

11 °C

18 °C

Nord

3.7 Km/h

Dew point 11 °C

Umidità 93 %

Visibilità  10 Km

Il sole sorge alle ore 06:57

Il sole tramonta alle ore 19:29

Data e Ora Cielo e Fenomeni T °C DP °C Um. % Pres. hPa Vis. km Vento km/h
Oggi h: 20:50 molto_nuvoloso Molto Nuvoloso 12 11 93 1017 10 N 3.7
Oggi h: 20:20 molto_nuvoloso Molto Nuvoloso 13 11 87 1016 10 E 7.4
Oggi h: 19:50 molto_nuvoloso Molto Nuvoloso 14 11 82 1016 10 N 5.5
Oggi h: 19:20 molto_nuvoloso Molto Nuvoloso 14 11 82 1016 10 E/NE 7.4
Oggi h: 18:50 molto_nuvoloso Molto Nuvoloso 14 11 82 1016 10 E/NE 7.4
Oggi h: 18:20 molto_nuvoloso Molto Nuvoloso 15 10 72 1016 10 NE 13
Oggi h: 17:50 molto_nuvoloso Molto Nuvoloso 16 10 67 1016 10 NE 11.1
Oggi h: 17:20 molto_nuvoloso Molto Nuvoloso 17 11 67 1016 10 NE 13
Oggi h: 16:50 molto_nuvoloso Molto Nuvoloso 16 10 67 1016 10 N/NE 11.1
Oggi h: 16:20 molto_nuvoloso Molto Nuvoloso 17 10 63 1016 10 NE 7.4
Oggi h: 15:50 molto_nuvoloso Molto Nuvoloso 17 11 67 1016 10 N/NE 7.4
Oggi h: 15:20 molto_nuvoloso Molto Nuvoloso 17 10 63 1016 10 N 5.5
Oggi h: 14:50 molto_nuvoloso Molto Nuvoloso 18 11 63 1017 10 N 5.5
Oggi h: 14:20 molto_nuvoloso Molto Nuvoloso 16 10 67 1017 10 N/NE 7.4
Oggi h: 13:50 molto_nuvoloso Molto Nuvoloso 16 10 67 1017 10 N/NE 7.4
Oggi h: 13:20 molto_nuvoloso Molto Nuvoloso 15 9 67 1017 10 N 5.5
Oggi h: 12:50 nuvoloso Nuvoloso 15 9 67 1017 10 N 3.7
Oggi h: 12:20 nuvoloso Nuvoloso 16 11 72 1017 10 E 7.4
Oggi h: 11:50 coperto Coperto 15 12 82 1018 10 N 5.5
Oggi h: 11:20 coperto Coperto 14 11 82 1018 10 N 5.5
Oggi h: 10:50 molto_nuvoloso Molto Nuvoloso 14 10 76 1018 10 N 3.7
Oggi h: 10:20 coperto Coperto 14 10 76 1018 10 N 3.7
Oggi h: 09:50 molto_nuvoloso Molto Nuvoloso 13 10 81 1018 10 N 3.7
Oggi h: 09:20 molto_nuvoloso Molto Nuvoloso 13 10 81 1018 10 N 1.8
Oggi h: 08:50 molto_nuvoloso Molto Nuvoloso 12 11 93 1018 10 N 1.8
Oggi h: 08:20 molto_nuvoloso Molto Nuvoloso 12 11 93 1018 10 N 0
Oggi h: 07:50 molto_nuvoloso Molto Nuvoloso 11 11 100 1018 8 N 0
Oggi h: 07:20 molto_nuvoloso Molto Nuvoloso 11 11 100 1018 9 N 1.8
Oggi h: 06:50 molto_nuvoloso Molto Nuvoloso 11 11 100 1018 7 N 3.7
Oggi h: 06:20 coperto Coperto 11 11 100 1018 10 N 0
Oggi h: 05:50 molto_nuvoloso Molto Nuvoloso 11 11 100 1018 10 N 1.8
Oggi h: 05:20 coperto Coperto 11 11 100 1018 10 N 1.8
Oggi h: 04:50 coperto Coperto 11 11 100 1018 10 N 1.8
Oggi h: 04:20 coperto Coperto 11 10 93 1018 9 N 1.8
Oggi h: 03:50 molto_nuvoloso Molto Nuvoloso 11 10 93 1018 3 N 1.8
Oggi h: 03:20 molto_nuvoloso Molto Nuvoloso 11 11 100 1018 10 N 3.7
Oggi h: 02:50 coperto Coperto 12 11 93 1018 10 N 5.5
Oggi h: 02:20 coperto Coperto 13 11 87 1018 10 N 7.4
Oggi h: 01:50 coperto Coperto 13 12 93 1018 10 N 3.7
Oggi h: 01:20 coperto Coperto 13 12 93 1018 10 N 1.8
Oggi h: 00:50 coperto Coperto 13 12 93 1018 10 N 3.7
Oggi h: 00:20 coperto Coperto 13 12 93 1019 10 N 5.5
Ieri h: 23:50 coperto Coperto 13 12 93 1018 10 N 5.5
Ieri h: 23:20 coperto Coperto 14 12 87 1018 10 N/NO 7.4
Ieri h: 22:50 coperto Coperto 14 12 87 1018 10 N 5.5
Ieri h: 22:20 coperto Coperto 14 12 87 1018 10 N 7.4
Ieri h: 21:50 coperto Coperto 14 12 87 1018 10 N 5.5